Location: Wien
(48.2082°N, 16.3738°E)
Time: 09:39:05
(UTC+02:00)

Transit 4A - Pass Details

Date: 29 February 2024
Orbit: 871 x 971 km, 66.8° (Epoch: 24 April)

Event Time Altitude Azimuth Distance (km) Brightness Sun altitude
Exits shadow 05:36:13 - 317° (NW) 3,471 10.5 -10.9°
Reaches altitude 10° 05:40:00 10° 342° (NNW) 2,570 10.0 -10.3°
Maximum altitude 05:42:55 14° 12° (NNE) 2,297 10.1 -9.8°
Drops below altitude 10° 05:45:49 10° 42° (NE) 2,544 10.8 -9.3°
Sets 05:49:44 0° 68° (ENE) 3,470 12.3 -8.7°
